Tracking 19817 objects as of 19-Aug-2019
HD Live streaming from Space Station
objects crossing your sky now

COSMOS 2251 DEB

Track COSMOS 2251 DEB now!
10-day predictions


NORAD ID: 34024
Int'l Code: 1993-036HK
Perigee: 773.9 km
Apogee: 803.9 km
Inclination: 74.0 °
Period: 100.5 minutes
Semi major axis: 7159 km
RCS: 0.084 m2 (small)
Launch date: June 16, 1993
Source: Commonwealth of Independent States (former USSR) (CIS)
Launch site: PLESETSK MISSILE AND SPACE COMPLEX (PKMTR)

Note: This is SATELLITE DEBRIS
aabbcc
Your satellite tracking list
Your tracking list is empty




NASA's NSSDC Master Catalog

Two Line Element Set (TLE):
1 34024U 93036HK  19230.93793059 +.00000030 +00000-0 +20513-4 0  9992
2 34024 074.0456 214.1571 0020942 117.6317 271.8677 14.32997863549508
Source of the keplerian elements: AFSPC